This is the latest recevied weather packets stored in our database for station/object SV9TNF-57. If no packets are shown the sender has not sent any weather packets the latest 10 day(s).
| Time | Temp. | Humidity | Pressure | Rain* | Wind** | Luminosity | Snow |
|---|---|---|---|---|---|---|---|
| 1788288504 | 27.22° C | 43% | 995.5 hPa | 0 mm | 2.24 m/s, 299° | - | - |
| 1788288203 | 26.67° C | 43% | 995.6 hPa | 0 mm | 3.58 m/s, 305° | - | - |
| 1788287903 | 26.67° C | 44% | 995.6 hPa | 0 mm | 4.02 m/s, 276° | - | - |
| 1788287603 | 26.67° C | 44% | 995.4 hPa | 0 mm | 2.68 m/s, 265° | - | - |
| 1788287303 | 27.22° C | 44% | 995.4 hPa | 0 mm | 0.45 m/s, 275° | - | - |
| 1788287004 | 27.22° C | 44% | 995.4 hPa | 0 mm | 0.45 m/s, 272° | - | - |
| 1788286703 | 26.67° C | 44% | 995.4 hPa | 0 mm | 0 m/s | - | - |
| 1788286402 | 26.67° C | 44% | 995.3 hPa | 0 mm | 1.34 m/s, 256° | - | - |
| 1788286102 | 27.22° C | 44% | 995.3 hPa | 0 mm | 0 m/s | - | - |
| 1788285802 | 27.22° C | 45% | 995.4 hPa | 0 mm | 0.89 m/s, 313° | - | - |
| 1788285503 | 27.22° C | 45% | 995.3 hPa | 0 mm | 0 m/s | - | - |
| 1788285202 | 27.22° C | 46% | 995.3 hPa | 0 mm | 0 m/s | - | - |
| 1788284903 | 27.78° C | 45% | 995.3 hPa | 0 mm | 0 m/s | - | - |
| 1788284602 | 27.78° C | 45% | 995.1 hPa | 0 mm | 0 m/s | - | - |
| 1788284302 | 27.78° C | 46% | 995.2 hPa | 0 mm | 0 m/s | - | - |
| 1788284002 | 27.78° C | 47% | 995 hPa | 0 mm | 0 m/s | - | - |
| 1788283702 | 27.78° C | 48% | 995 hPa | 0 mm | 0 m/s | - | - |
| 1788283402 | 27.78° C | 49% | 994.9 hPa | 0 mm | 0 m/s | - | - |
| 1788283102 | 27.78° C | 47% | 994.7 hPa | 0 mm | 0 m/s | - | - |
| 1788282801 | 27.78° C | 54% | 994.8 hPa | 0 mm | 0 m/s | - | - |
| 1788282501 | 27.78° C | 61% | 994.9 hPa | 0 mm | 0 m/s | - | - |
| 1788282201 | 27.78° C | 60% | 994.6 hPa | 0 mm | 0 m/s | - | - |
| 1788281901 | 27.78° C | 62% | 994.9 hPa | 0 mm | 0 m/s | - | - |
| 1788281601 | 27.78° C | 62% | 994.8 hPa | 0 mm | 0 m/s | - | - |
| 1788281301 | 28.33° C | 62% | 994.8 hPa | 0 mm | 0 m/s | - | - |
* Rain latest hour (hover to see other rain measurements)
** Current wind speed in m/s (hover to see current wind gust speed)